Regional Weather Roundup
Issued by NWS Newport/Morehead, NC

Current Version | Previous Version | Graphics & Text | Print | Product List | Glossary Off
Versions: 1 2 3 4 5 6 7 8 9 10 11 12 13 14 15 16 17 18 19 20 21 22 23 24 25 26 27 28 29 30 31 32 33 34 35 36 37 38 39 40 41 42 43 44 45 46 47 48 49 50

000
ASUS42 KMHX 270425
RWRMHX
WEATHER ROUNDUP FOR EASTERN NORTH CAROLINA
NATIONAL WEATHER SERVICE NEWPORT/MOREHEAD CITY NC
1200 AM EDT WED MAY 27 2015

NOTE: "FAIR" INDICATES FEW OR NO CLOUDS BELOW 12,000 FEET
WITH NO SIGNIFICANT WEATHER AND/OR OBSTRUCTIONS TO VISIBILITY

NCZ015>017-031-032-045>047-102-103-270500-
NORTH COAST

CITY           SKY/WX    TMP DP  RH WIND       PRES   REMARKS
EDENTON        PTCLDY    71  66  83 S10       30.27S
ELIZABETH CITY CLEAR     71  66  84 S9        30.26F
KITTY HAWK     CLEAR     72  64  76 SW6       30.27F
MANTEO         CLEAR     73  65  77 SW16      30.29S

$$

NCZ045>047-081-094-103-104-270500-
CENTRAL COAST

CITY           SKY/WX    TMP DP  RH WIND       PRES   REMARKS
FRISCO         PTCLDY    73  63  70 S14       30.31R
SWANQUARTER      N/A     73 N/A N/A S8G21     30.24S

$$

NCZ095-097-098-100-101-270500-
SOUTHERN COAST

CITY           SKY/WX    TMP DP  RH WIND       PRES   REMARKS
BEAUFORT       PTCLDY    73  66  78 S10       30.29S
CEDAR ISLAND     N/A     72 N/A N/A S9        30.33S
JACKSONVILLE   PTCLDY    73  67  81 S9        30.27S
PINEY ISLAND   CLEAR    N/A N/A N/A S7        30.28F
WILMINGTON     PTCLDY    75  69  81 S9        30.27F


$$

NCZ011>013-027>030-043-044-078>080-089-090>093-098-270500-
COASTAL PLAIN

CITY           SKY/WX    TMP DP  RH WIND       PRES   REMARKS
AHOSKIE        PTCLDY    72  67  84 S7        30.25S
CLINTON        MOCLDY    72  72  98 S6        30.28R
ELIZABETHTOWN  MOCLDY    73  70  89 CALM      30.27S
GOLDSBORO      MOCLDY    73  70  88 S1        30.25R
GREENVILLE     CLEAR     72  70  94 S7        30.27S
HAVELOCK       CLEAR     72  66  81 S3        30.29S
KENANSVILLE    PTCLDY    71  68  90 CALM      30.28S
KINSTON        CLEAR     73  68  86 S8        30.27S
NEW BERN       CLEAR     71  66  84 S5        30.29S
RICHLANDS      PTCLDY    72  64  78 S5        30.28S
ROCKY MOUNT    CLOUDY    74  69  85 S6        30.26R
WASHINGTON     PTCLDY    72  66  83 SE6       30.27S
WHITEVILLE     CLOUDY    74  68  82 CALM      30.27R

$$

AMZ130-135-150-152-154-156-158-170-250-252-270-ANZ085-086-088-633-658-670-270500-
MARINE OBSERVATIONS

STATION/POSITION TIME  TEMP    WIND        PRES    WAVE   SWELL
                       AIR SEA DIR/SP/G            HT/PER HT/PER
                 (UTC) (F)     (DEG/KT/KT) (MB)    (FT/S) (FT/S)
CHESAPEAKE LIGHT 0400   68     190/ 24/ 24 1024.3
64 E VA BEACH    0350   66 63  180/ 10/ 12 1025.3    3/ 6   2/ 6
DUCK             0400   73 57  190/ 14/ 18 1024.0
2 E DUCK         0311      62                N/A     2/ 6
OREGON INLET     0400   74 77  180/ 18/ 20 1025.5
13E OREGON INLT  0400      67                N/A     3/ 5
HATTERAS CG      0400   74 76  180/  6/ 11 1025.6
DIAMOND BUOY     0350   74 76  180/ 16/ 19 1026.1    3/ 5   2/13
CAPE LOOKOUT     0400   74     170/ 14/ 16 1025.5
BEAUFORT LAB     0400   75 76  170/ 12/ 16 1024.7
27 SE WRIGHTSVLE 0300   73 76  190/ 14/ 17   N/A
5 SE WRIGHTSVLE  NOT AVBL
225 S CAPE HAT   0350   73 74  140/ 12/ 14 1026.4    4/ 7   3/ 7
41 SE CHARLESTON 0350   78 76  170/ 12/ 14 1024.4    4/ 7   2/ 7

$$



USA.gov is the U.S. government's official web portal to all federal, state and local government web resources and services.